Weather History for Fort Lewis, WA

Change the Weather History Date:

Tuesday, April 30, 2013

  Actual Average Record
Temperature  
Mean Temperature 44 °F -  
Max Temperature 57 °F 60 °F 83 °F (2014)
Min Temperature 32 °F 40 °F 28 °F (2006)
Degree Days  
Heating Degree Days 21    
Moisture  
Dew Point 30 °F    
Average Humidity 59    
Maximum Humidity 92    
Minimum Humidity 27    
Precipitation  
Precipitation 0.00 in - - ()
Sea Level Pressure  
Sea Level Pressure 30.32 in    
Wind  
Wind Speed 6 mph (SSW)    
Max Wind Speed 9 mph    
Max Gust Speed -    
Visibility 10 miles    
Events      
Averages and records for this station are not official NWS values.
T = Trace of Precipitation, MM = Missing Value Source: NWS Daily Summary

Daily Weather History Graph

Daily Weather History Graph

Search for Another Location

Airport:

Trip Planner

Search our weather history database for the weather conditions in past years. The results will help you decide how hot, cold, wet, or windy it might be!

Date:

Astronomy

Apr. 30, 2013 Rise Set
Actual Time 5:55 AM PDT 8:20 PM PDT
Civil Twilight 5:21 AM PDT 8:54 PM PDT
Nautical Twilight 4:39 AM PDT 9:36 PM PDT
Astronomical Twilight 3:51 AM PDT 10:25 PM PDT
Moon 12:52 AM PDT (4/30) 10:27 AM PDT (4/30)
Length of Visible Light 15h 32m
Length of Day
14h 24m
Waning Gibbous, 69% of the Moon is Illuminated
Apr 30
Waning Gibbous
May 2
Last Quarter
May 9
New
May 17
First Quarter
May 24
Full

Hourly Weather History & Observations

Time (PDT) Temp. Windchill Dew Point Humidity Pressure Visibility Wind Dir Wind Speed Gust Speed Precip Events Conditions
12:58 AM 37.6 °F 31.0 °F 32.2 °F 81% 30.19 in 10.0 mi SE 9.2 mph - N/A   Partly Cloudy
1:58 AM 37.0 °F 31.0 °F 32.0 °F 82% 30.20 in 10.0 mi SE 8.1 mph - N/A   Partly Cloudy
2:58 AM 35.4 °F 29.7 °F 32.0 °F 87% 30.21 in 10.0 mi SE 6.9 mph - N/A   Scattered Clouds
3:58 AM 33.4 °F 26.6 °F 30.9 °F 90% 30.22 in 10.0 mi SSE 8.1 mph - N/A   Clear
4:58 AM 32.4 °F 26.9 °F 30.4 °F 92% 30.22 in 10.0 mi SSE 5.8 mph - N/A   Clear
5:58 AM 33.4 °F 27.3 °F 31.3 °F 92% 30.23 in 10.0 mi SSE 6.9 mph - N/A   Clear
6:58 AM 34.5 °F 28.6 °F 32.5 °F 92% 30.25 in 10.0 mi SE 6.9 mph - N/A   Clear
7:58 AM 41.0 °F 39.0 °F 35.1 °F 79% 30.27 in 10.0 mi SSE 3.5 mph - N/A   Clear
8:58 AM 43.2 °F - 33.6 °F 69% 30.29 in 10.0 mi Variable 1.2 mph - N/A   Clear
9:58 AM 46.2 °F 45.0 °F 32.9 °F 60% 30.30 in 10.0 mi NNE 3.5 mph - N/A   Clear
10:58 AM 47.7 °F - 32.2 °F 55% 30.32 in 10.0 mi NNW 5.8 mph - N/A   Partly Cloudy
11:58 AM 50.7 °F - 31.3 °F 47% 30.33 in 10.0 mi East 3.5 mph - N/A   Clear
12:58 PM 52.7 °F - 28.6 °F 40% 30.34 in 10.0 mi Variable 2.3 mph - N/A   Clear
1:58 PM 52.0 °F - 22.6 °F 32% 30.34 in 10.0 mi Variable 3.5 mph - N/A   Partly Cloudy
2:58 PM 55.9 °F - 22.8 °F 28% 30.35 in 10.0 mi NW 5.8 mph - N/A   Clear
3:58 PM 56.5 °F - 22.8 °F 27% 30.36 in 10.0 mi West 5.8 mph - N/A   Clear
4:58 PM 56.8 °F - 22.6 °F 27% 30.37 in 10.0 mi Variable 2.3 mph - N/A   Mostly Cloudy
5:58 PM 56.5 °F - 25.0 °F 30% 30.37 in 10.0 mi West 5.8 mph - N/A   Partly Cloudy
6:58 PM 55.4 °F - 26.2 °F 33% 30.38 in 10.0 mi NW 6.9 mph - N/A   Clear
7:58 PM 52.5 °F - 27.5 °F 38% 30.39 in 10.0 mi NNW 3.5 mph - N/A   Clear
8:58 PM 50.0 °F - 33.1 °F 52% 30.42 in 10.0 mi West 6.9 mph - N/A   Partly Cloudy
9:58 PM 47.7 °F - 33.8 °F 59% 30.44 in 10.0 mi West 9.2 mph - N/A   Clear
10:58 PM 45.9 °F 43.6 °F 33.6 °F 62% 30.45 in 10.0 mi West 4.6 mph - N/A   Clear
11:58 PM 43.5 °F 41.9 °F 33.1 °F 67% 30.47 in 10.0 mi SSW 3.5 mph - N/A   Clear